Regional Weather Roundup
Issued by NWS

Home | Current Version | Previous Version | Text Only | Print | Product List | Glossary On
Versions: 1 2 3 4 5 6 7 8 9 10 11 12 13 14 15 16 17 18 19 20 21 22 23 24 25 26 27 28 29 30 31 32 33 34 35 36 37 38 39 40 41 42 43 44 45 46 47 48 49
000
ASUS44 KLIX 250413
RWRLA
LOUISIANA WEATHER ROUNDUP
NATIONAL WEATHER SERVICE NEW ORLEANS LA
1100 PM CDT MON APR 24 2017

NOTE: "FAIR" INDICATES FEW OR NO CLOUDS BELOW 12,000 FEET WITH NO
      SIGNIFICANT WEATHER AND/OR OBSTRUCTIONS TO VISIBILITY.
      SKY/WX - SKY CONDITION AND SIGNIFICANT WEATHER.
      TMP - AIR TEMPERATURE.    DP   - DEWPOINT TEMPERATURE.
      RH  - RELATIVE HUMIDITY.  PRES - PRESSURE.
      HX  - HEAT INDEX.         WCI  - WIND CHILL INDEX.

*  THESE STATIONS ARE NOT NWS OR FAA STATIONS AND ARE NOT UNDER
   NWS QUALITY CONTROL.

LAZ040-048-061>063-065-066-069-250500-
SOUTHEAST LOUISIANA

CITY           SKY/WX    TMP DP  RH WIND       PRES   REMARKS
N.O. INTL ARPT PTCLDY    64  53  67 SW6       29.81S
N.O. LAKEFRONT CLEAR     71  54  54 SW7       29.81R
N.O. DOWNTOWN*   N/A     72  54  53 S5          N/A
RESERVE*       NOT AVBL
SLIDELL        CLEAR     58  54  86 CALM      29.81R
BATON ROUGE    CLEAR     59  54  83 CALM      29.82R
BOOTHVILLE     CLEAR     68  57  68 W8        29.82R
BELLE CHASSE   PTCLDY    63  55  75 CALM      29.81R
BOGALUSA*      NOT AVBL
GALLIANO*      CLEAR     60  54  80 CALM      29.83R
NEW ROADS*     FAIR      58  52  79 CALM      29.82S
GONZALES*      FAIR      61  51  70 CALM      29.82R
HAMMOND*       CLEAR     55  52  88 CALM      29.81S
HOUMA*         CLEAR     62  56  81 W5        29.83R
PORT FOURCHON* CLEAR     70  55  60 SW8       29.83S

$$

LAZ041-044-053-054-250500-
SOUTHWEST LOUISIANA

CITY           SKY/WX    TMP DP  RH WIND       PRES   REMARKS
LAKE CHARLES   CLEAR     63  56  78 SW3       29.81S
LAFAYETTE      PTCLDY    69  54  58 SW9       29.82R
PATTERSON      PTCLDY    60  58  92 CALM      29.83S
SALT POINT       N/A     70  56  61 VRB3      29.82R
NEW IBERIA     PTCLDY    62  53  72 W5        29.83R
CHENAULT AIRPK NOT AVBL

$$

LAZ027-028-250500-
CENTRAL LOUISIANA

CITY           SKY/WX    TMP DP  RH WIND       PRES   REMARKS
FORT POLK      CLOUDY    64  54  69 S7        29.79R
ALEXANDRIA INT CLEAR     59  51  75 SE3       29.78R
ALEXANDRIA     PTCLDY    52  51  97 CALM      29.80R

$$

LAZ001-002-250500-
NORTHWEST LOUISIANA

CITY           SKY/WX    TMP DP  RH WIND       PRES   REMARKS
SHREVEPORT     PTCLDY    60  48  64 S7        29.74F
BARKSDALE AFB  CLEAR     58  48  69 S8        29.74F
DTN SHREVEPORT CLEAR     65  48  54 S7        29.74F

$$

LAZ014-016-250500-
NORTHEAST LOUISIANA

CITY           SKY/WX    TMP DP  RH WIND       PRES   REMARKS
MONROE         CLEAR     58  49  72 CALM      29.80R
TALLULAH       CLEAR     56  51  84 SE3       29.80S

$$




USA.gov is the U.S. government's official web portal to all federal, state and local government web resources and services.